Location: The Stocker AstroScience Center
(25.7579°N, 80.3725°W)
Time: 14:21:07

ISS - Pass Details

Date: 26 February 2018
Orbit: 403 x 406 km, 51.6° (Epoch: 18 March)

Event Time Altitude Azimuth Distance (km) Brightness Sun altitude
Rises 06:25:28 0° 256° (WSW) 2,314 - -5.7°
Exits shadow 06:27:11 - 268° (W) 1,732 -1.3 -5.4°
Reaches altitude 10° 06:28:09 10° 279° (W) 1,456 -1.7 -5.1°
Maximum altitude 06:30:13 16° 319° (NW) 1,162 -1.9 -4.7°
Drops below altitude 10° 06:32:18 10° 359° (N) 1,458 -1.1 -4.2°
Sets 06:34:59 0° 22° (NNE) 2,319 0.2 -3.6°
